SES-19

Last updated on Thu Nov 21 2024 00:02:45 GMT+0000 (Coordinated Universal Time)

1 55971U 23038B 24325.45420240 .00000089 00000+0 00000+0 0 9995 2 55971 0.0185 23.8864 0001888 225.9573 198.7488 1.00273528 6326
UTC large
Height (km)
Speed (km/s)
/
Latitude / Longitude
Inclination (degrees)
Orbital Period (minutes)
Azimuth
Elevation
Range (km)
Doppler Factor

Next 0 passes for location: London (51.5072 / 0.1276)

Sorry there are no passes over London.